Regional Weather Roundup
Issued by NWS

Home | Current Version | Previous Version | Graphics & Text | Print | Product List | Glossary Off
Versions: 1 2 3 4 5 6 7 8 9 10 11 12 13 14 15 16 17 18 19 20 21 22 23 24 25 26 27 28 29 30 31 32 33 34 35 36 37 38 39 40 41 42 43 44 45 46 47 48 49 50

299
ASUS43 KTOP 230208
RWRKS

WEATHER ROUNDUP FOR KANSAS
NATIONAL WEATHER SERVICE GOODLAND KS
900 PM CDT THU JUN 22 2017

NOTE:  "FAIR" INDICATES FEW OR NO CLOUDS BELOW 12,000 FEET WITH NO
SIGNIFICANT WEATHER AND/OR OBSTRUCTIONS TO VISIBILITY.

KSZ001>006-013>018-027>032-041>047-230300-
NORTHWEST KANSAS

CITY           SKY/WX    TMP DP  RH WIND       PRES   REMARKS
GOODLAND       CLOUDY    78  58  49 NE16      29.85F
HAYS           TSTM      89  66  46 NE18G25   29.67R
HILL CITY      PTCLDY    82  65  56 N17G26    29.76R
RUSSELL        PTCLDY    90  64  42 N18       29.63R
$$

KSZ061>065-074>080-084>089-230300-
SOUTHWEST KANSAS

CITY           SKY/WX    TMP DP  RH WIND       PRES   REMARKS
DODGE CITY     TSTM      72  59  63 W16G31    29.78F
ELKHART          N/A     72  56  57 NE6         N/A
GARDEN CITY    TSTM      73  59  61 N17G39    29.83R
GREAT BEND     CLOUDY    87  65  47 S10       29.65S
LIBERAL        CLOUDY    88  54  31 N16G28    29.78R
PRATT          PTCLDY    82  60  46 S7        29.69S
$$

KSZ066>073-081>083-090>101-230300-
SOUTHEAST KANSAS

CITY           SKY/WX    TMP DP  RH WIND       PRES   REMARKS
CHANUTE        CLEAR     80  71  74 S5        29.66S
COFFEYVILLE    CLEAR     80  73  79 SE7       29.65S
HUTCHINSON     CLEAR     83  64  52 SE7       29.66R
MEDICINE LODGE   N/A     87  62  43 S5        29.65R
NEWTON         CLEAR     81  67  62 SE7       29.69R
PARSONS        CLEAR     82  71  69 S5        29.67S
WICHITA INTL   PTCLDY    82  71  69 SE8       29.67R
WICHITA JABRA  CLEAR     80  69  69 S6        29.68R
WICHITA MCCONL CLEAR     82  69  64 S6        29.68R
WINFIELD       CLEAR     81  70  69 SE5       29.68R
$$

KSZ007>012-019>026-033>040-048>060-102>105-230300-
NORTHEAST KANSAS

CITY           SKY/WX    TMP DP  RH WIND       PRES   REMARKS
CONCORDIA      PTCLDY    86  66  51 VRB3      29.63R
EMPORIA        CLEAR     78  72  81 S6        29.69R
LAWRENCE       MOCLDY    81  74  79 SE5       29.66R
MANHATTAN      CLEAR     85  69  58 S7        29.64R
MARYSVILLE     CLEAR     82  72  69 SE7       29.63R
OLATHE IND     CLEAR     79  72  79 S5        29.69R
OLATHE EXE     CLEAR     79  74  84 S5        29.69R
SALINA         CLEAR     90  64  42 S12       29.62R
TOPEKA BILLARD PTCLDY    84  73  69 SW6       29.67R
TOPEKA FORBES  MOCLDY    83  73  72 S6        29.68R HAZE
$$




USA.gov is the U.S. government's official web portal to all federal, state and local government web resources and services.